Location: Düngen
(52.0952°N, 10.0219°E)
Time: 14:50:07
(UTC+00:00)

ISS - Pass Details

Date: 11 March 2026
Orbit: 415 x 424 km, 51.6° (Epoch: 14 April)

Event Time Altitude Azimuth Distance (km) Brightness Sun altitude
Rises 18:45:54 0° 201° (SSW) 2,373 0.2 -14.3°
Reaches altitude 10° 18:48:40 10° 177° (S) 1,510 -1.1 -14.8°
Enters shadow 18:49:30 13° 164° (SSE) 1,344 -1.5 -14.9°
